Retour au catalogue

ST5-C

ActifScienceLEO
NORAD 28982·PAYLOAD·🇺🇸 United States

Lancé Mar 22, 2006 depuis Vandenberg Space Force Base

Loading…

Prochains Passages (prochaines 24 heures)

TLE

FraisSource: Space-Track

Époque: Sep 14, 2026, 13:22 UTC

1 28982U 06008C   26257.55728594  .00060723  54385-5  62451-3 0  9999
2 28982 105.4528 172.8219 0726487  82.8827 285.4300 14.34922638568761

Suivez ST5-C en temps réel avec AllMySat

Download on the App Store